Home   Weather   Monthey   Past weeks

Flag for Switzerland Past Weather in Monthey, Valais, Switzerland — Yesterday and Last 2 Weeks

Now
53 °F

Cool.


Feels Like: 50 °F
Forecast: 36 / 48 °F
Wind: 10 mph from North

Location: Aigle

Current Time: Apr 30, 2017 at 1:08:24 pm

Latest Report: Apr 30, 2017 at 12:00 pm


Visibility: N/A

Pressure: 29.84 "Hg

Humidity: 65%

Dew Point: 42 °F

Location of MontheyLocation

Past Weather in Monthey — Graph

°F

Monthey Temperature Yesterday

Maximum temperature yesterday: 56 °F (at 5:00 pm)
Minimum temperature yesterday: 33 °F (at 7:00 am)
Average temperature yesterday: 45 °F

High & Low Weather Summary for the Past Weeks

 TemperatureHumidityPressure
High68 °F (Apr 24, 6:00 pm)99% (Apr 26, 1:00 am)30.52 "Hg (Apr 26, 1:00 am)
Low26 °F (Apr 20, 7:00 am)20% (Apr 18, 5:00 pm)29.70 "Hg (Apr 25, 10:00 pm)
Average47 °F66%30.10 "Hg
* Reported Apr 15 11:00 am — Apr 30 11:00 am, Monthey, Weather by CustomWeather, © 2017

Note: Actual official high and low records may vary slightly from our data, if they occured in-between our weather recording intervals... More about our weather records

Advertising

Monthey Weather History for the Previous 24 Hours

Scroll right to see more
 ConditionsComfort  
Time TempWeatherWind HumidityBarometerVisibility
11:00 am
Sun, Apr 30
52 °FSunny.9 mph70%29.87 "Hg28 mi
10:00 am49 °FCool.12 mph72%29.90 "HgN/A
9:00 am47 °FCool.2 mph73%29.92 "HgN/A
8:00 am39 °FSunny.1 mph90%29.96 "Hg28 mi
7:00 am33 °FChilly.1 mph98%29.98 "HgN/A
6:00 am36 °FChilly.2 mph92%29.97 "HgN/A
5:00 am37 °FClear.1 mph86%29.97 "Hg16 mi
4:00 am34 °FChilly.3 mph94%30.00 "HgN/A
3:00 am36 °FChilly.1 mph90%29.99 "HgN/A
2:00 am36 °FChilly.No wind91%29.99 "HgN/A
1:00 am44 °FQuite cool.1 mph70%29.97 "HgN/A
12:00 am42 °FQuite cool.7 mph80%29.98 "HgN/A
11:00 pm
Sat, Apr 29
42 °FQuite cool.8 mph81%29.98 "HgN/A
10:00 pm45 °FQuite cool.5 mph74%29.97 "HgN/A
9:00 pm42 °FQuite cool.3 mph86%29.97 "HgN/A
8:00 pm49 °FSunny.1 mph67%29.95 "Hg19 mi
7:00 pm55 °FCool.5 mph46%29.94 "HgN/A
6:00 pm56 °FRefreshingly cool.9 mph42%29.95 "HgN/A
5:00 pm56 °FPassing clouds.10 mph49%29.96 "Hg19 mi
4:00 pm56 °FRefreshingly cool.12 mph50%29.98 "HgN/A
3:00 pm55 °FCool.9 mph45%29.99 "HgN/A
2:00 pm54 °FSunny.9 mph48%30.01 "Hg16 mi
1:00 pm54 °FCool.3 mph37%30.02 "HgN/A
Weather by CustomWeather, © 2017

See weather overviewHow to use our weather pages